[[{"header":{"parameterUnit":"m.s-1","parameterCategory":1,"la1":30.2991,"la2":30.254,"lo1":-89.0895,"lo2":-89.0444,"dy":0.0017,"dx":0.0017,"nx":28,"ny":28,"refTime":"2025-06-08T09:00:00:Z","depth":0,"parameterNumber":2,"parameterNumberName":"U-component_of_WINDS"},"data":[0,0,0,0,0,0,0,0,0,0,0,0,0,0,0,0,0,0,0,0,0,0,0,0,0,0,0,0,0,0,0,0,0,0,0,0,0,0,0,0,0,0,0,0,0,0,0,0,0,0,0,0,0,0,0,0,0,0,4.2001,4.2003,0,4.2225,4.2228,4.2231,4.2222,4.2219,4.2215,4.2212,4.2445,4.2453,4.2462,0,0,0,0,0,0,0,0,0,0,0,0,0,4.1565,4.1573,4.2001,4.2004,4.2006,4.2225,4.2228,4.2231,4.2222,4.2218,4.2215,4.2211,4.2442,4.2452,4.2463,0,0,0,0,0,0,0,0,0,0,0,0,0,4.1768,4.1576,4.2,4.2028,4.2033,4.2224,4.2228,4.2232,4.2223,4.2218,4.2214,4.2209,4.2438,4.2451,4.2465,4.2644,0,0,4.2507,4.2512,0,0,0,0,0,0,0,0,4.1757,4.1784,4.2021,4.2027,4.2032,4.2191,4.2159,4.237,4.2224,4.2151,4.2212,4.2207,4.2364,4.2383,4.2436,4.2655,4.2664,4.2508,4.2516,4.2522,4.2526,0,0,0,0,0,0,0,4.1743,4.1775,4.209,4.2025,4.2032,4.203,4.2053,4.2199,4.2281,4.2157,4.2157,4.2184,4.2366,4.2423,4.2441,4.2668,4.2507,4.2519,4.2528,4.2533,4.3041,4.3046,0,0,0,0,0,0,4.1722,4.1763,4.2083,4.2096,4.188,4.2041,4.2068,4.2145,4.228,4.2296,4.2187,4.2182,4.2402,4.2425,4.245,4.2665,4.2522,4.2535,4.2542,4.3036,4.3042,4.3048,0,0,0,0,0,0,4.1713,4.1751,4.2074,4.193,4.1971,4.2054,4.214,4.2152,4.2208,4.2303,4.2317,4.223,4.2399,4.243,4.2594,4.2673,4.2541,4.2553,4.3029,4.3038,4.3045,4.3099,0,0,0,0,0,0,4.1701,4.1748,4.1817,4.1931,4.1978,4.2215,4.2145,4.2159,4.2232,4.2227,4.2347,4.2362,4.2398,4.2574,4.2608,4.2689,4.2564,4.3023,4.3033,4.3042,4.309,4.3108,4.3123,0,0,0,0,0,4.1685,4.1824,4.182,4.1859,4.2066,4.2219,4.2246,4.2284,4.2238,4.2308,4.2368,4.2358,4.2659,4.2591,4.2629,4.2716,4.3018,4.303,4.3042,4.3083,4.3104,4.3122,0,0,0,0,0,0,4.1718,4.184,4.1837,4.2017,4.2108,4.2218,4.2306,4.2306,4.2412,4.2403,4.2447,4.2474,4.2637,4.2694,4.2615,4.2894,4.2833,4.2853,4.2851,4.2872,4.2888,4.287,4.2575,0,0,0,0,0,4.1746,4.186,4.196,4.211,4.2155,4.2223,4.2291,4.2312,4.2408,4.2447,4.2519,4.2613,4.2729,4.2804,4.2916,4.3099,4.3124,4.3178,4.3193,4.3206,4.3222,4.332,4.3344,4.3087,4.3087,4.3087,0,0,4.1805,4.1886,4.1955,4.2118,4.2191,4.2307,4.2256,4.2382,4.2468,4.2467,4.2624,4.2681,4.2789,4.2962,4.3043,4.3014,4.3299,4.3221,4.3231,4.324,4.3335,4.3359,4.3381,4.3095,4.3094,4.3092,0,0,4.1972,4.2045,4.2176,4.2249,4.236,4.2404,4.2435,4.2545,4.2582,4.2741,4.2741,4.2845,4.3044,4.312,4.3184,4.3378,4.3372,4.3413,4.3496,4.3591,4.3611,4.3629,4.3695,4.3718,4.3429,4.343,4.343,0,4.2031,4.2206,4.2244,4.237,4.244,4.2443,4.2575,4.2645,4.2786,4.2835,4.2801,4.3049,4.3122,4.3311,4.3358,4.3411,4.3447,4.3399,4.3605,4.3624,4.3641,4.3704,4.3729,4.3434,4.3433,4.3433,4.3432,0,4.2273,4.2394,4.2487,4.2621,4.2703,4.2831,4.2887,4.2965,4.2979,4.3026,4.3187,4.3275,4.3403,4.345,4.3466,4.3642,4.362,4.3596,4.3534,4.3669,4.3729,4.3754,4.3439,4.3438,4.3437,4.3436,0,0,4.2466,4.2618,4.2651,4.2711,4.2832,4.2926,4.3054,4.3178,4.3243,4.3341,4.3448,4.3615,4.3592,4.3665,4.369,4.3773,4.3916,4.3738,4.3741,4.3765,4.4112,4.4127,4.4155,4.3914,4.3919,4.3923,4.4102,0,4.2643,4.2869,4.2905,4.3103,4.3214,4.3218,4.3329,4.3415,4.3463,4.3564,4.3617,4.3733,4.3696,4.3739,4.3822,4.3881,4.3986,4.3869,4.4012,4.4017,4.3982,4.4187,4.4204,4.4368,4.4126,4.413,4.4133,0,4.2879,4.298,4.3189,4.3292,4.334,4.344,4.3554,4.3652,4.3749,4.3777,4.3858,4.3871,4.4003,4.3937,4.4119,4.4038,4.4099,4.4137,4.4144,4.4157,4.4081,4.4202,4.4422,4.4445,4.4171,4.4168,4.4165,0,4.2995,4.3184,4.3332,4.3384,4.3509,4.3578,4.3634,4.3726,4.3797,4.3898,4.3944,4.406,4.4123,4.4212,4.4256,4.4204,4.4433,4.4372,4.4459,4.4457,4.4505,4.4501,4.4735,4.4549,4.4549,4.4548,4.4548,0,4.3187,4.3313,4.3385,4.3476,4.3618,4.3659,4.3798,4.3852,4.3933,4.4034,4.4046,4.414,4.4194,4.4296,4.4332,4.4475,4.4504,4.453,4.4537,4.4527,4.4523,4.4565,4.4554,4.4555,4.4554,4.4552,4.4551,0,4.3339,4.3393,4.3554,4.3659,4.3688,4.3787,4.3876,4.3964,4.4011,4.4138,4.4171,4.4244,4.4365,4.4418,4.4568,4.4591,4.4753,4.4754,4.472,4.4721,4.4804,4.4794,4.5071,4.5108,4.4901,4.4903,4.4905,0,4.3457,4.3554,4.3668,4.3735,4.3792,4.3902,4.3974,4.4018,4.4092,4.4209,4.4282,4.4403,4.4501,4.4694,4.476,4.4874,4.4876,4.4965,4.4893,4.4878,4.4873,4.4865,4.4874,4.4977,4.4979,4.4981,4.4982,0,4.3658,4.3679,4.3782,4.3894,4.3979,4.407,4.4158,4.4213,4.4271,4.4354,4.4476,4.4553,4.4704,4.4823,4.494,4.4997,4.4999,4.5005,4.503,4.5019,4.4994,4.5005,4.4752,4.4998,4.4996,4.4995,4.4994,4.4994,4.3795,4.388,4.3972,4.4086,4.4157,4.4239,4.4325,4.4382,4.4485,4.461,4.463,4.476,4.4853,4.501,4.5071,4.5173,4.5151,4.5189,4.5198,4.5206,4.5209,4.498,4.5195,4.5195,4.5195,4.5194,4.5194,0,4.3994,4.4053,4.4157,4.4279,4.4368,4.4362,4.4459,4.4534,4.4648,4.4734,4.4829,4.4969,4.5084,4.5159,4.5274,4.5341,4.5345,4.537,4.5364,4.5376,4.5224,4.5189,4.5365,4.5365,4.5365,4.5365,4.5365,4.5364,4.4108,4.425,4.4282,4.4459,4.4518,4.4644,4.4699,4.4774,4.4843,4.4997,4.5092,4.514,4.5221,4.5342,4.5447,4.5466,4.5506,4.5532,4.5549,4.5405,4.5387,4.537,4.5337,4.5541,4.5542,4.5692,4.5694,4.5695]},{"header":{"parameterUnit":"m.s-1","parameterCategory":1,"la1":30.2991,"la2":30.254,"lo1":-89.0895,"lo2":-89.0444,"dy":0.0017,"dx":0.0017,"nx":28,"ny":28,"refTime":"2025-06-08T09:00:00:Z","depth":0,"parameterNumber":3,"parameterNumberName":"V-component_of_WINDS"},"data":[0,0,0,0,0,0,0,0,0,0,0,0,0,0,0,0,0,0,0,0,0,0,0,0,0,0,0,0,0,0,0,0,0,0,0,0,0,0,0,0,0,0,0,0,0,0,0,0,0,0,0,0,0,0,0,0,0,0,0.4747,0.4747,0,0.4803,0.4804,0.4805,0.4806,0.4805,0.4805,0.4804,0.4863,0.4866,0.4868,0,0,0,0,0,0,0,0,0,0,0,0,0,0.4641,0.4643,0.4747,0.4747,0.4748,0.4803,0.4804,0.4805,0.4806,0.4805,0.4804,0.4804,0.4863,0.4865,0.4868,0,0,0,0,0,0,0,0,0,0,0,0,0,0.4691,0.4644,0.4747,0.4755,0.4757,0.4803,0.4804,0.4805,0.4806,0.4805,0.4804,0.4803,0.4862,0.4865,0.4868,0.491,0,0,0.4879,0.488,0,0,0,0,0,0,0,0,0.4689,0.4695,0.4753,0.4755,0.4757,0.4796,0.4789,0.484,0.4807,0.4788,0.4804,0.4803,0.4842,0.4847,0.486,0.4913,0.4915,0.4879,0.4881,0.4882,0.4883,0,0,0,0,0,0,0,0.4685,0.4693,0.4769,0.4754,0.4756,0.4757,0.4763,0.4798,0.482,0.4789,0.4789,0.4796,0.4843,0.4857,0.4861,0.4916,0.4879,0.4882,0.4884,0.4885,0.5006,0.5007,0,0,0,0,0,0,0.468,0.469,0.4767,0.4771,0.4719,0.476,0.4766,0.4785,0.482,0.4824,0.4797,0.4796,0.4852,0.4857,0.4863,0.4915,0.4882,0.4886,0.4887,0.5005,0.5006,0.5008,0,0,0,0,0,0,0.4677,0.4687,0.4765,0.4731,0.4741,0.4763,0.4783,0.4786,0.48,0.4825,0.4829,0.4807,0.4851,0.4859,0.4898,0.4917,0.4887,0.489,0.5003,0.5005,0.5007,0.5017,0,0,0,0,0,0,0.4674,0.4686,0.4702,0.4731,0.4742,0.4799,0.4784,0.4788,0.4806,0.4805,0.4836,0.484,0.4851,0.4893,0.4902,0.4921,0.4893,0.5002,0.5004,0.5006,0.5015,0.5019,0.5022,0,0,0,0,0,0.4671,0.4703,0.4702,0.4712,0.4763,0.48,0.4806,0.4817,0.4807,0.4824,0.484,0.4839,0.4913,0.4897,0.4907,0.4927,0.5001,0.5004,0.5006,0.5014,0.5018,0.5022,0,0,0,0,0,0,0.4676,0.4707,0.4707,0.4749,0.4772,0.48,0.4821,0.4822,0.4848,0.4847,0.4859,0.4866,0.4906,0.492,0.4902,0.4969,0.4956,0.4961,0.4958,0.4963,0.4966,0.4962,0.4896,0,0,0,0,0,0.4682,0.4709,0.4735,0.477,0.4781,0.4799,0.4815,0.4822,0.4846,0.4856,0.4875,0.4899,0.4927,0.4946,0.4973,0.5017,0.5024,0.5036,0.5039,0.5042,0.5046,0.507,0.5076,0.5016,0.5016,0.5016,0,0,0.4695,0.4715,0.4732,0.4771,0.4789,0.4818,0.4807,0.4837,0.4859,0.4861,0.4899,0.4914,0.4941,0.4983,0.5002,0.4996,0.5064,0.5045,0.5047,0.505,0.5073,0.5079,0.5084,0.5018,0.5018,0.5018,0,0,0.4733,0.4751,0.4782,0.48,0.4827,0.4839,0.4846,0.4874,0.4884,0.4922,0.4924,0.495,0.4999,0.5018,0.5034,0.5078,0.5079,0.5087,0.5106,0.5129,0.5134,0.5138,0.5154,0.5159,0.5091,0.5091,0.5091,0,0.4746,0.4788,0.4798,0.4828,0.4845,0.4847,0.4879,0.4896,0.4932,0.4944,0.4936,0.4997,0.5016,0.5062,0.5073,0.5086,0.5095,0.5084,0.5132,0.5136,0.514,0.5156,0.5162,0.5092,0.5092,0.5092,0.5092,0,0.4802,0.4831,0.4853,0.4886,0.4906,0.4937,0.4952,0.4971,0.4975,0.4987,0.5026,0.5049,0.5081,0.5092,0.5097,0.5139,0.5134,0.5129,0.5116,0.5147,0.5161,0.5167,0.5093,0.5093,0.5093,0.5092,0,0,0.4846,0.4884,0.4891,0.4906,0.4936,0.4959,0.499,0.5021,0.5037,0.5061,0.5087,0.5128,0.5123,0.5142,0.5149,0.5169,0.5202,0.5162,0.5162,0.5169,0.525,0.5254,0.526,0.5203,0.5204,0.5205,0.5248,0,0.4887,0.4942,0.4951,0.4999,0.5026,0.5028,0.5055,0.5076,0.5088,0.5113,0.5127,0.5156,0.5147,0.5158,0.5179,0.5194,0.5219,0.5191,0.5228,0.5229,0.5221,0.5268,0.5272,0.5312,0.5253,0.5254,0.5255,0,0.4943,0.4968,0.5018,0.5044,0.5056,0.5079,0.5108,0.5132,0.5156,0.5163,0.5183,0.5188,0.522,0.5205,0.5249,0.523,0.5246,0.5255,0.5257,0.5261,0.5244,0.5274,0.5325,0.5331,0.5264,0.5264,0.5263,0,0.497,0.5016,0.5052,0.5065,0.5096,0.5112,0.5126,0.5149,0.5167,0.5192,0.5204,0.5232,0.5248,0.527,0.5282,0.527,0.5326,0.5312,0.5333,0.5333,0.5345,0.5344,0.54,0.5355,0.5355,0.5354,0.5354,0,0.5016,0.5046,0.5064,0.5087,0.5121,0.5131,0.5165,0.5179,0.5199,0.5224,0.5227,0.5251,0.5265,0.5291,0.53,0.5335,0.5343,0.535,0.5352,0.535,0.5349,0.536,0.5358,0.5356,0.5356,0.5355,0.5355,0,0.5052,0.5065,0.5105,0.513,0.5138,0.5162,0.5184,0.5206,0.5217,0.5249,0.5257,0.5275,0.5305,0.5319,0.5357,0.5363,0.5403,0.5404,0.5395,0.5396,0.5417,0.5415,0.5482,0.5491,0.5439,0.544,0.544,0,0.508,0.5104,0.5132,0.5149,0.5163,0.519,0.5207,0.5218,0.5237,0.5266,0.5284,0.5314,0.5338,0.5386,0.5403,0.5432,0.5433,0.5454,0.5437,0.5434,0.5434,0.5432,0.5434,0.5458,0.5458,0.5459,0.5459,0,0.5129,0.5134,0.516,0.5187,0.5208,0.523,0.5252,0.5266,0.528,0.5301,0.5331,0.535,0.5388,0.5418,0.5447,0.5462,0.5463,0.5464,0.5471,0.5469,0.5463,0.5466,0.5404,0.5463,0.5462,0.5462,0.5462,0.5462,0.5163,0.5184,0.5206,0.5234,0.5252,0.5272,0.5293,0.5307,0.5333,0.5364,0.5369,0.5401,0.5424,0.5464,0.5479,0.5505,0.55,0.5509,0.5512,0.5514,0.5515,0.5458,0.551,0.551,0.551,0.551,0.551,0,0.5212,0.5226,0.5252,0.5282,0.5304,0.5302,0.5326,0.5345,0.5373,0.5394,0.5418,0.5453,0.5482,0.5501,0.553,0.5546,0.5548,0.5554,0.5553,0.5556,0.5518,0.551,0.5552,0.5552,0.5552,0.5552,0.5552,0.5552,0.524,0.5275,0.5283,0.5326,0.5341,0.5372,0.5386,0.5405,0.5422,0.546,0.5484,0.5496,0.5516,0.5546,0.5573,0.5577,0.5588,0.5594,0.5599,0.5563,0.5559,0.5555,0.5547,0.5596,0.5596,0.5635,0.5635,0.5635]}]]